Total_Precipitation_Accumulation
1.60 1.65 1.69 1.78 1.94 2.02 1.99 2.04 2.06 2.09 2.23 2.36 2.45 2.52 2.52 2.54 2.68 2.80 2.64 2.81 2.79 2.89 2.80 2.77 2.74 2.97 3.03 2.86 3.03 3.17 3.42 3.67 3.38 2.87 2.95 2.97 2.88 2.64 2.60 2.52 2.39 2.35 2.14
1.63 1.74 1.85 1.91 2.00 2.07 1.95 2.02 2.24 2.27 2.33 2.44 2.54 2.62 2.51 2.60 2.74 2.68 2.67 2.75 2.79 2.76 2.87 3.08 2.99 3.18 3.20 3.14 3.34 3.34 3.43 3.71 3.61 3.24 3.09 3.14 3.00 2.83 2.74 2.50 2.14 2.04 2.03
1.98 1.97 2.00 1.94 1.99 2.11 2.16 2.18 2.29 2.40 2.46 2.46 2.45 2.51 2.66 2.84 2.85 2.67 2.66 2.66 2.57 2.48 2.66 2.96 3.25 3.73 3.57 3.40 3.29 3.21 3.25 3.33 3.58 3.30 3.01 3.21 3.04 2.91 2.86 2.49 2.19 2.14 1.80
1.85 1.86 1.98 2.06 2.19 2.33 2.40 2.45 2.46 2.43 2.45 2.53 2.62 2.63 2.70 2.72 2.69 2.70 2.76 2.76 2.70 2.55 2.56 2.69 2.86 3.17 3.34 3.47 3.25 3.15 3.23 3.32 3.45 3.35 3.23 3.43 3.47 3.29 3.08 2.69 2.49 2.33 2.05
2.14 2.34 2.50 2.52 2.55 2.67 2.73 2.70 2.72 2.65 2.56 2.78 2.85 2.83 2.79 2.72 2.52 2.77 2.95 2.81 2.87 2.75 2.66 2.59 2.43 2.56 2.75 2.95 2.80 3.10 3.30 3.25 3.31 3.35 3.44 3.81 3.78 3.57 3.04 2.77 2.65 2.53 2.24
2.46 2.82 2.96 2.99 3.01 3.04 3.06 3.04 3.04 2.99 3.12 3.15 3.00 2.94 2.86 2.59 2.79 2.89 2.92 2.92 3.00 2.92 2.81 2.74 2.54 2.37 2.35 2.50 2.57 2.78 3.04 3.06 3.11 3.27 3.35 3.52 3.56 3.50 3.29 3.01 2.76 2.60 2.29
2.51 2.73 2.83 2.91 2.98 3.14 3.14 3.13 3.12 3.12 3.15 3.16 3.23 3.19 3.06 3.15 3.20 2.87 2.82 2.80 2.83 2.80 2.98 3.07 2.62 2.22 2.46 2.40 2.48 2.48 2.38 2.51 2.70 2.91 3.06 3.09 3.41 3.54 3.59 3.16 2.97 2.76 2.38
2.74 2.88 2.97 2.94 2.96 3.01 3.00 2.90 2.91 3.04 3.08 3.03 2.99 2.93 2.89 2.88 3.00 2.73 2.67 2.53 2.52 2.53 2.59 2.65 2.63 2.45 2.40 2.44 2.38 2.21 2.00 2.00 2.16 2.21 2.30 2.56 2.92 3.43 3.77 3.52 3.40 3.19 2.80
2.81 2.89 3.03 3.12 3.21 3.11 3.02 3.00 3.01 3.08 2.98 2.93 2.91 2.92 2.81 2.77 2.84 2.63 2.61 2.39 2.33 2.25 2.23 2.24 2.27 2.12 2.21 2.22 2.13 2.03 1.92 1.81 1.83 1.92 1.89 2.03 2.35 2.75 3.28 3.53 3.29 2.95 2.61
2.76 2.89 3.02 3.12 3.29 3.39 3.34 3.35 3.28 3.19 3.13 3.11 3.06 3.05 2.96 2.87 2.99 2.73 2.61 2.36 2.31 2.29 2.39 2.35 2.30 2.12 2.12 2.03 1.88 1.88 1.72 1.59 1.72 1.71 1.64 1.67 1.81 2.15 2.68 2.88 3.00 2.85 2.52
2.48 2.53 2.71 2.95 3.19 3.35 3.44 3.45 3.46 3.37 3.27 3.07 2.91 2.88 2.79 2.75 2.91 2.73 2.57 2.31 2.28 2.37 2.45 2.49 2.41 2.31 2.01 1.88 1.75 1.65 1.63 1.78 1.86 1.85 1.79 1.80 1.97 2.16 2.34 2.62 2.87 2.92 2.68
2.46 2.59 2.74 2.97 3.06 3.12 3.24 3.29 3.45 3.42 3.30 3.18 2.94 2.73 2.59 2.43 2.40 2.43 2.28 2.18 2.21 2.27 2.35 2.46 2.49 2.40 2.11 1.98 1.82 1.69 1.76 1.76 1.74 1.84 1.83 1.78 1.84 1.97 2.17 2.48 2.77 2.84 2.72
2.70 2.80 2.88 2.97 3.07 3.15 3.23 3.23 3.24 3.22 3.06 2.93 2.77 2.65 2.55 2.46 2.40 2.25 1.99 1.94 2.00 1.97 2.08 2.46 2.56 2.40 2.17 1.90 1.81 1.82 1.76 1.64 1.65 1.67 1.59 1.54 1.62 1.79 2.00 2.30 2.65 2.86 2.78
2.73 2.67 2.66 2.67 2.74 2.82 2.94 2.98 2.93 2.84 2.78 2.71 2.62 2.55 2.46 2.39 2.29 2.21 2.05 1.93 1.93 1.89 1.88 2.09 2.19 2.13 1.93 1.77 1.69 1.62 1.55 1.57 1.55 1.52 1.52 1.59 1.71 1.78 1.84 1.99 2.37 2.71 2.82
2.70 2.72 2.75 2.76 2.79 2.84 2.90 2.98 2.87 2.71 2.69 2.58 2.44 2.48 2.48 2.32 2.27 2.30 2.14 1.97 1.93 2.02 2.03 1.96 2.01 2.08 2.05 1.96 1.95 1.89 1.83 1.76 1.64 1.57 1.66 1.70 1.82 1.93 1.98 2.09 2.35 2.58 2.56
2.73 2.66 2.69 2.77 2.87 2.96 3.01 3.04 3.10 2.81 2.72 2.58 2.49 2.43 2.35 2.23 2.14 1.99 1.93 1.89 1.83 1.83 1.76 1.75 1.90 2.07 2.19 2.19 2.23 2.19 2.11 2.00 1.91 1.91 1.95 1.93 1.92 2.00 2.07 2.11 2.31 2.50 2.52
2.75 2.75 2.77 2.75 2.81 2.87 2.83 2.75 2.78 2.71 2.52 2.44 2.35 2.24 2.14 2.03 1.89 1.80 1.76 1.77 1.72 1.64 1.51 1.63 1.80 1.92 2.10 2.25 2.30 2.25 2.15 2.16 2.22 2.21 2.19 2.17 2.16 2.19 2.26 2.24 2.25 2.39 2.49
2.70 2.79 2.84 2.81 2.72 2.70 2.62 2.57 2.52 2.50 2.36 2.21 2.14 2.09 2.08 2.02 1.98 1.95 1.93 1.87 1.74 1.66 1.56 1.74 1.91 2.05 2.16 2.35 2.42 2.38 2.35 2.32 2.34 2.31 2.33 2.32 2.31 2.30 2.32 2.29 2.24 2.22 2.34
2.48 2.45 2.42 2.43 2.41 2.41 2.33 2.25 2.17 2.12 2.16 2.20 2.09 2.00 2.06 1.99 2.03 2.11 1.96 1.76 1.79 1.83 1.85 1.93 2.00 2.10 2.24 2.40 2.54 2.60 2.60 2.55 2.51 2.46 2.41 2.43 2.47 2.47 2.35 2.28 2.33 2.37 2.32
2.05 2.18 2.08 1.97 1.97 2.00 2.02 2.02 1.98 1.98 2.07 2.20 2.16 1.95 1.90 1.83 1.87 2.00 1.82 1.79 1.90 1.91 1.89 1.96 2.00 2.03 2.18 2.31 2.39 2.46 2.49 2.46 2.46 2.50 2.45 2.43 2.46 2.47 2.40 2.40 2.48 2.47 2.34
1.65 1.68 1.73 1.59 1.63 1.77 1.86 1.89 1.91 2.00 2.06 2.07 1.97 1.81 1.74 1.61 1.81 1.92 1.82 1.77 1.76 1.75 1.76 1.78 1.83 1.89 2.00 2.15 2.22 2.29 2.36 2.36 2.33 2.36 2.45 2.46 2.39 2.41 2.39 2.42 2.46 2.51 2.44
1.28 1.27 1.30 1.31 1.43 1.54 1.60 1.66 1.75 1.82 1.87 1.88 1.75 1.60 1.58 1.53 1.72 1.80 1.74 1.70 1.68 1.68 1.70 1.75 1.76 1.76 1.85 2.01 2.08 2.16 2.27 2.25 2.18 2.20 2.33 2.47 2.40 2.34 2.41 2.49 2.53 2.55 2.52
1.14 1.21 1.26 1.29 1.38 1.42 1.42 1.47 1.63 1.72 1.74 1.73 1.64 1.56 1.51 1.52 1.60 1.68 1.70 1.64 1.61 1.59 1.58 1.64 1.71 1.73 1.81 1.93 1.98 2.04 2.18 2.17 2.13 2.16 2.26 2.32 2.32 2.30 2.35 2.38 2.42 2.50 2.48
1.15 1.17 1.21 1.18 1.19 1.24 1.31 1.36 1.41 1.45 1.48 1.51 1.50 1.44 1.42 1.44 1.49 1.50 1.50 1.49 1.54 1.57 1.58 1.66 1.70 1.75 1.85 1.88 1.84 1.81 1.89 1.93 1.91 1.92 2.01 2.14 2.23 2.27 2.29 2.28 2.26 2.29 2.36
1.12 1.18 1.21 1.29 1.33 1.35 1.35 1.37 1.38 1.34 1.34 1.37 1.39 1.44 1.47 1.47 1.48 1.49 1.52 1.53 1.53 1.56 1.55 1.58 1.64 1.71 1.74 1.67 1.61 1.63 1.76 1.71 1.66 1.67 1.79 1.98 2.07 2.16 2.20 2.19 2.20 2.25 2.33
1.22 1.30 1.37 1.45 1.49 1.50 1.54 1.54 1.50 1.45 1.45 1.41 1.45 1.49 1.58 1.64 1.66 1.67 1.65 1.64 1.64 1.64 1.61 1.62 1.62 1.57 1.57 1.53 1.46 1.51 1.50 1.39 1.39 1.52 1.58 1.74 1.92 1.96 2.08 2.20 2.19 2.22 2.25